Theta_e
336 338 338 337 336 333 333 331 332 332 330 333 345 349 351 345 345 347 350 351 353 352 351 351 351 350 350 351 352 349 348 347 349 349 350 350 351 350 349 347 348 349 350 351
336 335 336 335 332 331 332 331 333 331 331 331 345 351 351 350 348 347 347 348 350 351 353 352 351 351 351 352 354 353 350 349 349 349 350 349 351 352 351 351 351 351 351 352
335 334 333 332 330 331 332 332 331 331 330 330 333 352 352 351 350 352 351 346 346 348 351 353 353 352 352 352 353 355 355 350 351 349 350 350 351 354 354 354 353 354 355 354
330 333 332 330 329 331 331 331 330 330 332 334 332 356 352 350 352 353 355 352 348 346 346 349 353 353 352 352 353 354 356 356 353 349 351 354 352 353 351 352 351 353 354 355
329 331 332 330 329 330 330 331 331 331 331 332 331 352 352 350 352 352 355 356 353 350 347 345 350 352 353 353 353 354 356 357 356 355 351 354 354 354 354 353 352 351 353 355
328 328 328 329 329 329 330 330 331 332 331 332 335 340 354 352 351 350 351 356 357 355 352 349 347 349 353 353 354 354 356 358 358 357 357 356 355 355 353 351 351 352 353 352
326 327 328 328 329 330 331 332 334 335 330 335 338 351 348 347 348 348 349 352 355 356 356 354 349 348 349 352 354 354 355 358 359 359 358 359 357 358 355 352 353 353 353 351
327 329 329 331 331 333 333 334 334 335 334 336 336 349 352 346 346 347 346 346 350 355 356 356 356 355 354 352 353 355 354 356 358 359 359 359 359 357 354 354 353 353 352 352
333 337 334 334 334 334 335 335 334 332 334 335 350 352 348 347 346 346 346 345 346 348 351 355 355 355 356 355 355 356 356 356 357 359 359 359 359 359 356 355 356 354 354 354
334 339 335 334 333 333 334 336 338 344 342 338 341 350 351 351 349 346 347 346 344 343 343 345 349 352 354 355 355 356 356 356 357 357 358 358 358 358 358 357 356 357 356 355
332 333 336 335 335 343 339 336 341 338 341 344 345 360 353 352 347 344 342 342 342 341 341 342 342 344 348 352 354 354 352 350 350 351 356 357 357 358 359 358 356 356 357 357
332 332 335 336 337 336 334 338 343 340 349 350 347 354 347 346 343 342 341 339 337 337 337 338 339 341 343 345 348 348 349 347 346 347 347 352 354 356 357 357 356 355 355 355
334 333 336 338 337 335 335 336 337 337 336 340 340 357 347 344 343 340 339 337 336 335 336 336 335 336 338 340 343 344 344 344 344 347 350 348 345 350 350 350 349 352 353 352
336 335 335 347 345 344 344 339 339 339 338 338 343 350 349 345 343 339 336 336 335 335 335 335 335 335 335 336 337 339 340 343 344 345 347 348 348 345 344 345 343 342 344 345
336 338 340 342 342 341 339 339 339 339 338 339 338 337 347 347 342 337 334 334 334 334 335 335 334 332 332 333 334 335 336 338 339 340 343 344 346 345 345 345 345 345 345 346
337 339 340 342 338 337 338 337 338 337 337 336 337 336 344 340 335 334 333 333 333 333 333 333 330 329 329 329 330 332 332 334 336 337 341 342 345 346 345 345 346 347 346 346
338 338 341 342 339 339 339 337 337 337 338 337 333 340 338 336 334 334 333 332 332 330 329 330 330 329 330 330 330 330 330 330 333 336 338 340 341 343 344 345 346 346 346 347
336 339 339 340 340 344 338 337 336 336 332 331 332 337 335 334 334 332 331 331 328 328 329 330 329 329 328 328 327 328 328 330 330 333 336 337 340 340 341 342 343 345 346 345
333 334 338 341 340 338 337 335 332 332 331 330 331 332 332 332 332 332 327 327 328 327 329 329 328 327 326 326 326 325 325 327 329 330 332 335 336 337 338 341 342 343 344 345
332 333 336 338 339 339 337 332 331 330 329 331 332 332 332 331 331 331 326 327 327 327 327 327 326 326 325 325 325 324 325 324 326 328 328 330 331 334 336 338 340 342 343 344
333 332 334 337 337 336 335 333 331 330 341 334 332 332 331 332 331 327 326 328 325 323 322 322 323 322 322 321 322 322 323 324 323 323 324 325 327 329 332 335 337 340 342 342
334 333 332 332 334 336 334 332 332 340 335 333 332 330 330 329 325 324 327 326 323 321 322 322 322 322 321 320 320 321 320 321 322 322 323 323 324 326 329 332 334 338 340 342
332 334 340 337 342 338 334 335 334 333 334 332 330 329 327 325 325 326 326 323 320 321 323 322 321 320 319 318 318 317 319 318 318 320 321 321 322 325 327 331 332 337 338 337
332 334 332 334 335 334 333 333 332 331 331 331 328 326 323 324 324 325 321 320 320 323 323 321 320 319 318 317 318 317 316 317 316 317 320 322 323 326 327 330 331 333 335 336
337 335 332 334 337 335 333 333 332 331 330 328 325 323 323 323 323 319 319 320 322 323 322 321 320 318 317 317 317 317 316 317 317 316 317 320 324 327 329 330 331 331 333 333
330 332 332 332 336 335 334 333 332 332 330 327 323 322 322 318 318 317 318 320 321 321 322 320 319 318 317 315 315 315 315 315 315 315 316 319 323 327 329 331 334 333 332 331
Wind_Speed
15 13 13 11 12 8 3 5 6 2 7 1 9 10 11 9 9 4 7 10 13 13 16 19 17 18 18 19 19 21 19 20 17 15 14 13 12 11 10 11 10 9 10 9
13 12 13 9 3 7 8 8 5 2 4 7 9 10 13 10 9 6 4 4 8 12 14 18 22 19 20 21 23 21 23 21 24 19 17 15 11 12 13 12 11 12 12 12
17 9 5 2 7 9 13 11 9 6 5 7 9 10 12 15 12 8 6 1 6 8 9 17 19 24 20 21 23 23 22 24 22 20 16 16 14 11 10 14 14 15 14 13
13 8 5 9 11 9 14 8 1 6 11 8 13 5 9 14 15 13 11 8 3 3 10 13 20 21 24 23 22 23 23 24 23 26 19 19 18 17 17 15 16 16 15 15
12 11 7 12 12 7 12 6 7 6 10 10 12 14 12 13 15 14 14 13 11 7 1 8 12 23 20 20 21 22 23 23 23 24 26 21 20 17 17 16 17 16 13 15
14 4 6 14 12 7 10 10 15 16 10 12 9 2 17 13 11 13 15 15 15 13 11 2 5 10 17 18 18 19 21 22 23 23 24 23 20 21 19 21 17 20 17 18
15 13 14 10 13 12 14 16 13 12 7 3 2 13 12 3 10 13 14 15 16 17 15 14 7 5 3 10 14 13 15 18 21 23 25 24 25 22 22 23 17 16 16 15
12 15 13 12 15 14 11 17 10 6 5 4 6 9 10 12 11 12 13 15 16 17 16 15 14 12 5 3 7 12 13 15 17 21 23 23 23 23 23 21 22 19 20 15
8 9 5 6 12 11 8 11 9 14 11 11 7 14 18 14 11 11 12 14 15 15 14 16 16 14 13 5 1 6 10 12 15 18 20 22 23 23 24 23 21 21 23 23
3 7 11 8 10 11 15 4 2 6 7 12 1 14 11 16 12 10 10 11 12 13 14 13 15 16 16 18 24 11 4 8 10 14 18 20 21 22 23 24 22 21 19 22
12 12 3 10 14 9 18 10 7 12 7 4 6 5 12 11 10 11 10 10 10 11 11 11 14 15 15 12 14 16 18 20 19 18 13 15 19 21 22 24 23 23 23 23
15 11 11 9 5 3 10 3 15 8 7 8 17 5 11 10 9 10 9 8 8 8 8 9 11 14 14 13 13 12 13 15 17 16 17 13 16 16 18 16 20 21 22 23
5 10 13 9 14 7 11 11 8 14 10 9 10 9 11 10 9 6 7 5 6 6 7 8 9 10 13 14 14 12 13 14 15 15 13 13 12 11 7 8 10 12 13 19
5 15 17 1 8 8 17 6 7 10 11 13 6 14 12 10 7 6 4 3 3 3 5 7 9 10 11 11 13 14 15 12 13 13 15 14 13 14 12 14 14 15 16 17
8 16 13 13 26 21 16 9 3 11 12 11 16 13 12 11 6 5 2 3 5 8 6 8 10 12 14 14 14 15 15 15 15 16 14 16 13 13 14 17 16 15 16 17
12 12 5 11 5 10 11 9 8 11 9 10 7 11 14 10 4 3 1 5 8 9 10 11 12 15 16 16 18 19 19 18 17 17 18 16 13 13 13 14 15 16 17 17
7 10 5 12 7 7 11 11 12 9 4 9 10 12 10 9 5 2 6 9 9 10 11 12 14 16 17 18 19 19 21 22 21 19 19 18 16 15 15 15 15 17 16 18
7 8 10 12 6 12 2 6 6 5 4 3 1 4 4 5 4 5 7 7 7 10 12 13 16 16 19 21 22 22 24 22 21 21 21 20 16 16 17 18 18 18 17 18
11 11 12 12 14 14 12 9 4 3 8 8 5 6 3 2 4 9 7 6 9 11 14 16 17 18 18 18 16 20 20 21 24 20 23 21 19 18 19 20 19 19 19 21
15 12 11 12 12 15 9 12 8 5 10 9 4 3 1 3 7 10 8 8 11 13 15 16 17 19 18 18 20 19 19 19 22 23 24 23 23 21 23 23 22 21 20 20
7 9 13 12 13 6 9 9 6 5 5 7 5 3 3 4 6 9 9 10 11 12 13 14 16 17 16 16 19 22 21 20 22 25 26 24 25 28 27 26 25 23 22 21
8 7 10 10 14 12 12 7 3 7 7 5 3 3 2 4 5 7 8 9 11 13 14 15 16 17 19 19 20 20 21 22 24 25 25 24 25 27 28 26 25 23 22 22
8 4 6 7 6 8 10 4 8 6 6 3 1 3 2 4 5 6 7 9 11 12 13 14 16 18 18 18 17 20 21 21 24 26 26 25 25 26 28 26 26 23 23 24
6 3 5 2 7 6 8 5 6 4 4 4 3 2 3 4 5 6 7 8 11 13 13 14 15 16 18 18 17 18 20 20 21 23 24 24 26 25 26 23 23 24 26 25
6 5 6 5 5 3 6 6 6 5 4 5 3 1 2 3 4 6 6 8 11 11 11 12 13 15 17 18 19 19 19 20 21 21 21 23 25 22 26 21 21 23 25 15
8 7 7 5 8 4 1 10 8 8 6 4 1 2 2 3 4 5 6 8 9 12 12 12 13 15 17 18 20 20 20 21 21 22 19 19 21 22 23 19 21 21 26 26
Wind_Direction
202 229 230 244 35 356 341 316 284 37 100 164 66 60 51 46 24 131 178 195 190 195 175 171 193 184 188 177 178 195 195 197 196 197 208 222 211 226 218 221 217 221 229 227
227 224 265 41 306 265 265 261 253 114 89 265 108 89 84 68 61 57 343 293 217 196 190 179 181 201 197 192 188 191 201 197 197 204 207 220 230 206 221 237 209 215 225 228
236 212 72 237 220 235 235 254 23 331 319 241 173 116 108 93 75 61 67 256 256 272 221 181 191 191 203 200 200 198 200 202 204 208 206 216 226 232 208 221 223 219 225 232
219 205 196 222 244 262 279 56 273 256 268 220 223 79 98 90 77 61 45 44 61 225 217 248 180 197 198 206 204 205 204 205 209 210 214 211 218 219 224 220 229 230 226 228
211 232 220 237 245 272 281 12 296 267 264 274 217 173 121 82 69 59 49 42 38 41 218 225 216 185 200 200 204 209 207 209 213 205 214 209 224 222 230 233 223 215 216 222
268 201 241 231 234 241 273 275 256 236 230 235 207 137 340 44 46 60 56 48 44 35 62 117 277 207 178 197 203 205 204 209 214 218 219 226 221 224 224 235 229 223 224 226
215 226 211 228 247 233 230 251 250 227 192 189 285 87 184 118 69 56 58 50 44 54 37 49 71 55 242 201 191 213 208 215 219 220 223 225 230 224 228 242 241 234 233 241
207 187 198 192 231 268 210 264 277 243 245 89 194 137 124 116 98 77 64 60 51 47 54 53 28 43 47 309 226 205 218 223 225 226 226 229 233 234 234 240 238 239 244 248
216 126 153 235 220 245 232 250 351 309 205 230 57 130 141 123 101 85 76 65 58 53 46 42 47 36 25 35 292 231 224 220 229 232 225 229 232 235 239 239 234 230 238 240
302 149 188 156 220 231 279 343 18 357 333 272 351 181 133 152 124 105 81 70 61 56 50 47 40 34 27 17 15 7 309 257 238 242 233 231 235 237 240 243 248 246 240 240
266 257 133 172 222 114 266 239 343 195 236 249 174 69 18 112 125 112 95 68 60 47 43 43 37 37 33 25 23 20 24 24 19 2 307 261 243 235 237 242 245 244 244 245
232 281 218 207 63 247 291 172 199 293 82 327 288 110 148 129 120 109 102 77 52 56 33 33 38 23 21 29 16 7 358 347 347 345 341 337 314 289 279 263 254 257 253 249
237 241 262 221 185 201 252 244 280 317 298 243 299 121 136 136 136 97 88 74 82 31 28 22 23 20 8 4 2 1 350 347 341 326 297 313 312 326 330 327 322 295 285 272
307 264 269 158 8 16 300 261 266 301 299 326 95 156 162 162 142 117 84 64 29 29 11 12 351 2 350 346 345 341 339 338 328 324 318 304 290 280 297 302 305 306 292 284
254 265 325 139 179 191 265 303 276 290 305 308 324 335 157 144 134 87 110 51 354 343 337 350 344 337 331 328 329 324 324 323 327 319 316 315 300 295 282 283 289 289 280 271
236 265 218 288 278 282 279 265 285 291 298 288 285 288 95 96 118 212 312 354 338 342 341 346 336 329 324 326 319 316 311 311 313 313 307 301 299 285 282 284 285 288 287 278
272 273 228 270 256 265 263 280 239 270 348 306 292 73 109 148 179 352 338 339 357 351 338 330 323 319 319 314 309 308 308 307 304 301 300 297 291 289 284 280 280 282 286 286
239 259 276 268 267 254 340 32 2 307 306 254 305 122 63 36 22 327 343 29 349 333 327 322 317 320 321 319 315 327 318 301 297 296 293 294 296 297 292 282 277 274 279 279
265 256 259 253 260 263 188 181 191 247 279 188 241 127 175 136 288 93 69 1 339 336 330 331 328 318 316 309 317 317 317 314 309 301 299 296 292 293 297 291 284 283 281 278
271 238 254 246 250 270 91 91 90 63 264 147 170 157 311 326 277 106 17 358 348 347 338 325 318 316 324 324 316 317 309 309 301 328 330 319 310 299 291 291 288 290 287 281
236 246 236 235 250 232 111 129 135 250 79 109 117 77 317 306 351 337 337 346 337 339 331 328 319 317 322 326 315 308 307 305 305 309 312 310 308 300 290 285 287 285 287 288
237 220 233 241 252 224 133 151 259 93 124 105 101 65 342 338 324 318 336 332 336 337 338 335 330 327 323 322 323 310 308 311 311 306 302 300 294 288 285 284 283 283 277 281
252 322 342 12 52 110 149 49 109 145 144 136 107 85 349 309 318 335 325 331 334 338 342 338 335 322 318 318 319 308 310 318 314 310 302 298 295 288 284 279 276 277 267 261
203 276 266 327 114 149 161 112 136 125 111 97 81 27 332 324 330 330 340 342 338 345 342 339 332 328 323 322 319 311 308 310 309 310 312 304 297 290 281 275 269 260 258 262
31 134 242 251 179 179 185 179 162 134 122 123 104 38 13 338 344 348 333 342 347 335 333 338 337 326 323 329 324 322 322 320 313 309 310 308 301 295 296 281 271 268 268 287
229 239 236 276 110 207 4 182 180 161 171 142 160 151 83 9 4 350 346 337 348 330 335 336 337 331 331 329 325 324 324 321 312 308 305 304 304 304 307 300 303 281 271 271